User: anonymous   Login
Location: Holmes Observatory
(37.1039°N, 122.0513°W)
Time: 02:37:14
(UTC-07:00)
Language:

Cosmos 921 Rocket - Orbit

View from above orbital plane
View from above orbital plane
View from above satellite
View from above satellite

Ground track
Ground track

The orbit data is extracted from the following two-line orbital elements,

1 10096U 77055B   14294.55247655  .00001068  00000-0  11685-3 0  5680
2 10096 075.8341 281.3219 0042578 157.0871 342.2431 14.87919302 18009
Epoch (UTC): 21 October 2014 13:15:33
Eccentricity: 0.0042578
inclination: 75.8341°
perigee height: 575 km
apogee height: 634 km
right ascension of ascending node: 281.3219°
argument of perigee: 157.0871°
revolutions per day: 14.87919302
mean anomaly at epoch: 342.2431°
orbit number at epoch: 1800

The dashed part of the orbit path shows where the satellite is in the earth's shadow,  

DLR